Location: Alameda County Fire Department Station 17
(37.7151°N, 121.8838°W)
Time: 07:30:51
(UTC+00:00)

Daily predictions for brighter satellites

Satellite Brightness Start Highest point End
(mag) Time Altitude Azimuth Time Altitude Azimuth Time Altitude Azimuth
SAR-Lupe-1 4.3 12:00:00 10° SSE 12:03:30 73° ENE 12:07:04 10° N
CZ-4B R/B 2.0 12:03:24 10° SSE 12:06:22 53° ENE 12:09:23 10° N
Cosmos 1125 Rocket 4.4 12:03:02 10° NW 12:07:20 27° W 12:11:39 10° SSW
STARLINK-1286 4.4 12:03:43 10° WSW 12:07:42 44° NW 12:11:43 10° NE
Cosmos 2151 3.5 12:03:44 10° SSW 12:07:46 43° W 12:11:52 10° N
MSX 4.0 12:05:57 10° N 12:11:37 61° WNW 12:17:14 10° SSW
Cosmos 1408 4.2 12:11:10 10° SW 12:13:57 20° WNW 12:16:45 10° NNW
ADEOS II 4.2 12:14:53 10° NW 12:16:17 11° WNW 12:17:41 10° WNW
Cosmos 2098 4.4 12:13:20 10° S 12:16:17 78° E 12:19:40 10° N
Cosmos 1538 Rocket 4.1 12:11:27 10° SSW 12:16:47 89° WNW 12:22:12 10° NNE
STARLINK-24 3.8 12:14:32 10° SW 12:18:30 64° SE 12:22:27 10° NE
Cosmos 1844 Rocket 3.4 12:13:49 10° NNW 12:19:23 62° ENE 12:24:52 10° SSE
BREEZE-M DEB (TANK) 3.1 12:16:17 10° SW 12:21:19 57° SSE 12:24:06 10° ENE
CZ-3 R/B 3.6 12:18:39 10° WSW 12:44:57 47° S 12:52:14 10° ESE
